User: anonymous   Login
Location: Gisborne
(38.6530°S, 178.0040°E)
Time: 10:23:32
(UTC+13:00)
Language:

Cosmos 1707 Rocket - Orbit

View from above orbital plane
View from above orbital plane
View from above satellite
View from above satellite

Ground track
Ground track

The orbit data is extracted from the following two-line orbital elements,

1 16327U 85113B   19076.87241427  .00000078  00000-0  64703-5 0  9995
2 16327  82.5354 215.2841 0020060  45.5987  66.4010 14.83428990796565
Epoch (UTC): 17 March 2019 20:56:16
Eccentricity: 0.0020060
inclination: 82.5354°
perigee height: 604 km
apogee height: 632 km
right ascension of ascending node: 215.2841°
argument of perigee: 45.5987°
revolutions per day: 14.83428990
mean anomaly at epoch: 66.4010°
orbit number at epoch: 79656

The dashed part of the orbit path shows where the satellite is in the earth's shadow,  

DLR